TimeEST,TemperatureF,Dew PointF,Humidity,Sea Level PressureIn,VisibilityMPH,Wind Direction,Wind SpeedMPH,Gust SpeedMPH,PrecipitationIn,Events,Conditions,WindDirDegrees,DateUTC
12:53 AM,32.0,28.0,85,30.36,10.0,North,3.5,-,N/A,,Clear,350,2013-11-04 05:53:00
1:53 AM,32.0,28.9,88,30.35,10.0,Calm,Calm,-,N/A,,Clear,0,2013-11-04 06:53:00
2:53 AM,34.0,28.9,82,30.35,10.0,Calm,Calm,-,N/A,,Clear,0,2013-11-04 07:53:00
3:53 AM,33.1,28.9,85,30.35,10.0,Calm,Calm,-,N/A,,Clear,0,2013-11-04 08:53:00
4:53 AM,32.0,28.0,85,30.38,10.0,Calm,Calm,-,N/A,,Clear,0,2013-11-04 09:53:00
5:53 AM,30.0,26.1,85,30.40,10.0,Calm,Calm,-,N/A,,Clear,0,2013-11-04 10:53:00
6:53 AM,30.0,27.0,88,30.43,10.0,Calm,Calm,-,N/A,,Mostly Cloudy,0,2013-11-04 11:53:00
7:53 AM,34.0,30.0,85,30.43,10.0,Calm,Calm,-,N/A,,Mostly Cloudy,0,2013-11-04 12:53:00
8:53 AM,41.0,33.1,73,30.45,10.0,Calm,Calm,-,N/A,,Mostly Cloudy,0,2013-11-04 13:53:00
9:53 AM,50.0,32.0,50,30.44,10.0,East,5.8,-,N/A,,Scattered Clouds,100,2013-11-04 14:53:00
10:53 AM,54.0,28.0,37,30.44,10.0,East,6.9,-,N/A,,Scattered Clouds,90,2013-11-04 15:53:00
11:53 AM,57.0,28.0,33,30.43,10.0,Variable,4.6,-,N/A,,Partly Cloudy,0,2013-11-04 16:53:00
12:53 PM,59.0,27.0,29,30.40,10.0,East,6.9,-,N/A,,Scattered Clouds,90,2013-11-04 17:53:00
1:53 PM,57.9,26.1,30,30.39,10.0,Calm,Calm,-,N/A,,Mostly Cloudy,0,2013-11-04 18:53:00
2:53 PM,61.0,26.1,26,30.38,10.0,Calm,Calm,-,N/A,,Mostly Cloudy,0,2013-11-04 19:53:00
3:53 PM,60.1,27.0,28,30.35,10.0,Calm,Calm,-,N/A,,Mostly Cloudy,0,2013-11-04 20:53:00
4:53 PM,59.0,27.0,29,30.35,10.0,Calm,Calm,-,N/A,,Mostly Cloudy,0,2013-11-04 21:53:00
5:53 PM,51.1,30.0,44,30.37,10.0,Calm,Calm,-,N/A,,Scattered Clouds,0,2013-11-04 22:53:00
6:53 PM,46.9,30.0,52,30.40,10.0,Calm,Calm,-,N/A,,Scattered Clouds,0,2013-11-04 23:53:00
7:53 PM,48.9,28.0,44,30.38,10.0,Calm,Calm,-,N/A,,Mostly Cloudy,0,2013-11-05 00:53:00
8:53 PM,51.1,26.1,38,30.40,10.0,East,3.5,-,N/A,,Mostly Cloudy,90,2013-11-05 01:53:00
9:53 PM,48.9,26.1,41,30.40,10.0,East,4.6,-,N/A,,Mostly Cloudy,100,2013-11-05 02:53:00
10:53 PM,46.0,28.9,51,30.40,10.0,Calm,Calm,-,N/A,,Mostly Cloudy,0,2013-11-05 03:53:00
11:53 PM,46.0,28.9,51,30.40,10.0,Calm,Calm,-,N/A,,Mostly Cloudy,0,2013-11-05 04:53:00